EW7223 Weather Reports


Display with metric or nautical units.
time (UTC)temp
F
wind
direction
speed
MPH
gust
MPH
rain 1hr
in
rain 24hr
in
rain mn
in
humidity
%
barometer
mb
20260510182510 96 290 1.0 4.0 0.00 0.05 0.00 47 1015.7
20260510182007 96 123 1.0 6.0 0.00 0.05 0.00 47 1015.6
20260510181527 95 130 1.0 6.0 0.00 0.05 0.00 48 1015.6
20260510181004 95 121 1.0 6.0 0.00 0.05 0.00 47 1015.6
20260510180504 95 103 1.0 6.0 0.00 0.05 0.00 50 1015.6
20260510180022 95 333 2.0 5.0 0.00 0.05 0.00 48 1016.0
20260510175508 95 223 2.0 7.0 0.00 0.05 0.00 49 1016.1
20260510175010 95 273 3.0 7.0 0.00 0.05 0.00 49 1016.2
20260510174523 95 255 2.0 6.0 0.00 0.05 0.00 49 1016.2
20260510174010 95 286 2.0 5.0 0.00 0.05 0.00 49 1016.2
20260510173511 94 85 1.0 3.0 0.00 0.05 0.00 52 1016.3
20260510173028 94 106 1.0 3.0 0.00 0.05 0.00 53 1016.4
20260510172511 93 119 1.0 4.0 0.00 0.05 0.00 54 1016.5
20260510172011 93 307 2.0 5.0 0.00 0.05 0.00 52 1016.5
20260510171538 92 138 2.0 6.0 0.00 0.05 0.00 52 1016.5
20260510171008 92 107 1.0 7.0 0.00 0.05 0.00 54 1016.7
20260510170503 91 137 2.0 7.0 0.00 0.05 0.00 54 1016.7
20260510170020 91 113 1.0 3.0 0.00 0.05 0.00 56 1016.9
20260510165507 91 119 2.0 5.0 0.00 0.05 0.00 56 1017.0
20260510165007 91 119 2.0 5.0 0.00 0.05 0.00 57 1017.0
20260510164521 90 298 1.0 4.0 0.00 0.05 0.00 57 1017.3
20260510164008 90 267 1.0 3.0 0.00 0.05 0.00 58 1017.3
20260510163507 90 295 1.0 3.0 0.00 0.05 0.00 58 1017.4
20260510163027 90 164 1.0 6.0 0.00 0.05 0.00 58 1017.4
20260510162510 89 292 1.0 6.0 0.00 0.05 0.00 60 1017.5
20260510162010 89 202 1.0 4.0 0.00 0.05 0.00 62 1017.5
20260510161526 88 40 1.0 5.0 0.00 0.05 0.00 62 1017.4
20260510161011 88 101 1.0 5.0 0.00 0.05 0.00 61 1017.5
20260510160512 88 309 1.0 3.0 0.00 0.05 0.00 62 1017.5
20260510160034 87 101 0.0 2.0 0.00 0.05 0.00 65 1017.5
20260510155505 87 168 1.0 3.0 0.00 0.05 0.00 63 1017.5
20260510155004 87 134 1.0 4.0 0.00 0.05 0.00 63 1017.6
20260510154520 86 106 1.0 4.0 0.00 0.05 0.00 64 1017.6
20260510154008 86 229 1.0 3.0 0.00 0.05 0.00 65 1017.5
20260510153507 86 125 1.0 3.0 0.00 0.05 0.00 67 1017.5
20260510153038 85 120 1.0 3.0 0.00 0.05 0.00 69 1017.5
20260510152507 85 360 1.0 3.0 0.00 0.05 0.00 69 1017.6
20260510152013 84 57 0.0 2.0 0.00 0.05 0.00 68 1017.6
20260510151528 84 343 0.0 4.0 0.00 0.05 0.00 68 1017.6
20260510151009 84 228 1.0 4.0 0.00 0.05 0.00 68 1017.6
20260510150508 84 135 1.0 4.0 0.00 0.05 0.00 70 1017.5
20260510150030 83 344 1.0 4.0 0.00 0.05 0.00 69 1017.6
20260510145506 83 105 1.0 4.0 0.00 0.05 0.00 72 1017.6
20260510145006 83 247 1.0 4.0 0.00 0.05 0.00 1017.4
20260510144523 82 313 1.0 4.0 0.00 0.05 0.00 74 1017.4
20260510144007 82 117 0.0 3.0 0.00 0.05 0.00 74 1017.4
20260510143507 81 101 1.0 6.0 0.00 0.05 0.00 76 1017.3
20260510143024 81 112 1.0 6.0 0.00 0.05 0.00 76 1017.4
20260510142504 81 246 1.0 6.0 0.00 0.05 0.00 75 1017.3
20260510142004 81 297 2.0 4.0 0.00 0.05 0.00 75 1017.3
20260510141508 80 193 1.0 3.0 0.00 0.05 0.00 76 1017.3
20260510141004 80 300 1.0 3.0 0.00 0.05 0.00 79 1017.4
20260510140503 79 352 1.0 3.0 0.00 0.05 0.00 82 1017.3
20260510140011 79 139 1.0 3.0 0.00 0.05 0.00 83 1017.2
20260510135504 78 232 0.0 2.0 0.00 0.05 0.00 84 1017.1
20260510135006 78 248 0.0 2.0 0.00 0.05 0.00 84 1017.0
20260510134516 78 173 0.0 2.0 0.00 0.05 0.00 84 1017.0
20260510134007 78 84 0.0 2.0 0.00 0.05 0.00 86 1016.8
20260510133506 77 60 0.0 2.0 0.00 0.05 0.00 86 1016.8
20260510133024 77 198 0.0 2.0 0.00 0.05 0.00 87 1016.7
20260510132508 77 205 0.0 2.0 0.00 0.05 0.00 86 1016.8
20260510132009 77 234 0.0 2.0 0.00 0.05 0.00 87 1016.7
20260510131526 76 139 0.0 2.0 0.00 0.05 0.00 87 1016.7
20260510131003 76 163 0.0 2.0 0.00 0.05 0.00 89 1016.7
20260510130504 76 240 0.0 2.0 0.00 0.05 0.00 88 1016.7
20260510130008 76 240 0.0 2.0 0.00 0.05 0.00 88 1016.6
20260510125503 75 240 0.0 2.0 0.00 0.05 0.00 89 1016.8
20260510125009 75 242 0.0 2.0 0.00 0.05 0.00 89 1016.7
20260510124516 75 242 0.0 2.0 0.00 0.05 0.00 89 1016.8
20260510124007 75 242 0.0 2.0 0.00 0.05 0.00 89 1016.7
20260510123508 75 242 0.0 2.0 0.00 0.05 0.00 90 1016.7
20260510123022 74 242 0.0 2.0 0.00 0.05 0.00 90 1016.7
20260510122505 74 242 0.0 2.0 0.00 0.05 0.00 90 1016.7
20260510122010 74 242 0.0 1.0 0.00 0.05 0.00 91 1016.6
20260510121525 74 242 0.0 0.0 0.00 0.05 0.00 90 1016.5
20260510121009 74 242 0.0 0.0 0.00 0.05 0.00 90 1016.4
20260510120512 73 242 0.0 0.0 0.00 0.05 0.00 90 1016.3
20260510120025 73 242 0.0 0.0 0.00 0.05 0.00 90 1016.3
20260510115503 73 242 0.0 0.0 0.00 0.05 0.00 90 1016.2
20260510115004 73 242 0.0 0.0 0.00 0.05 0.00 90 1016.1
20260510114518 73 242 0.0 0.0 0.00 0.05 0.00 90 1016.2
20260510114008 73 242 0.0 0.0 0.00 0.05 0.00 89 1016.0
20260510113507 73 242 0.0 0.0 0.00 0.05 0.00 89 1015.8
20260510113021 73 242 0.0 0.0 0.00 0.05 0.00 89 1015.7
20260510112507 73 242 0.0 0.0 0.00 0.05 0.00 89 1015.5
20260510112009 73 242 0.0 0.0 0.00 0.05 0.00 89 1015.3
20260510111522 73 242 0.0 0.0 0.00 0.05 0.00 89 1015.3
20260510111010 73 242 0.0 0.0 0.00 0.05 0.00 88 1015.1
20260510110507 73 242 0.0 0.0 0.00 0.05 0.00 88 1015.1
20260510110037 73 242 0.0 0.0 0.00 0.05 0.00 88 1015.2
20260510105507 73 242 0.0 0.0 0.00 0.05 0.00 88 1015.1
20260510105009 73 242 0.0 0.0 0.00 0.05 0.00 88 1015.0
20260510104525 73 242 0.0 0.0 0.00 0.05 0.00 88 1015.0
20260510104006 73 242 0.0 0.0 0.00 0.05 0.00 88 1014.9
20260510103504 73 242 0.0 0.0 0.00 0.05 0.00 88 1014.8
20260510103016 73 242 0.0 0.0 0.00 0.05 0.00 88 1014.7
20260510102506 73 242 0.0 0.0 0.00 0.05 0.00 87 1014.6
20260510102007 73 242 0.0 0.0 0.00 0.05 0.00 87 1014.5
20260510101522 73 242 0.0 0.0 0.00 0.05 0.00 87 1014.5
20260510101009 73 242 0.0 0.0 0.00 0.05 0.00 87 1014.5
20260510100507 73 242 0.0 0.0 0.00 0.05 0.00 88 1014.4
20260510100031 73 242 0.0 0.0 0.00 0.05 0.00 88 1014.4
20260510095507 73 242 0.0 0.0 0.00 0.05 0.00 88 1014.4
20260510095007 73 242 0.0 0.0 0.00 0.05 0.00 88 1014.4
20260510094535 73 242 0.0 0.0 0.00 0.05 0.00 88 1014.4
20260510094009 73 242 0.0 0.0 0.00 0.05 0.00 88 1014.3
20260510093507 73 242 0.0 0.0 0.00 0.05 0.00 88 1014.3
20260510093014 73 242 0.0 0.0 0.00 0.05 0.00 88 1014.3
20260510092507 73 242 0.0 0.0 0.00 0.05 0.00 88 1014.1
20260510092009 73 242 0.0 0.0 0.00 0.05 0.00 88 1014.0
20260510091519 73 242 0.0 0.0 0.00 0.05 0.00 88 1014.1
20260510091007 73 242 0.0 0.0 0.00 0.05 0.00 88 1014.1
20260510090508 73 242 0.0 1.0 0.00 0.05 0.00 88 1014.1
20260510090025 73 242 0.0 2.0 0.00 0.05 0.00 88 1014.0
20260510085509 73 242 0.0 2.0 0.00 0.05 0.00 88 1014.0
20260510085008 73 228 0.0 2.0 0.00 0.05 0.00 88 1013.8
20260510084524 73 228 0.0 2.0 0.00 0.05 0.00 88 1013.8
20260510084008 73 246 0.0 2.0 0.00 0.05 0.00 88 1013.8
20260510083510 73 246 0.0 2.0 0.00 0.05 0.00 88 1013.8
20260510083026 73 246 1.0 4.0 0.00 0.05 0.00 88 1013.7
20260510082507 73 232 1.0 4.0 0.00 0.05 0.00 88 1013.7
20260510082014 73 165 0.0 2.0 0.00 0.05 0.00 88 1013.7
20260510081524 73 219 0.0 2.0 0.00 0.05 0.00 88 1013.8
20260510081005 73 213 0.0 2.0 0.00 0.05 0.00 88 1013.8
20260510080512 73 219 0.0 2.0 0.00 0.05 0.00 88 1013.9
20260510080038 73 235 0.0 2.0 0.00 0.05 0.00 88 1014.0
20260510075507 73 267 0.0 2.0 0.00 0.05 0.00 88 1014.0
20260510075010 73 267 0.0 2.0 0.00 0.05 0.00 88 1014.1
20260510074527 73 256 0.0 2.0 0.00 0.05 0.00 88 1014.1
20260510074009 73 256 0.0 2.0 0.00 0.05 0.00 88 1014.0
20260510073510 73 256 0.0 2.0 0.00 0.05 0.00 88 1014.1
20260510073039 73 256 0.0 2.0 0.00 0.05 0.00 88 1014.1
20260510072509 73 256 0.0 2.0 0.00 0.05 0.00 88 1014.1
20260510072008 73 256 0.0 2.0 0.00 0.05 0.00 88 1014.1
20260510071526 73 306 0.0 1.0 0.00 0.05 0.00 88 1014.1
20260510071009 73 85 0.0 2.0 0.00 0.05 0.00 87 1014.2
20260510070510 73 85 0.0 2.0 0.00 0.05 0.00 87 1014.1
20260510070018 73 85 0.0 2.0 0.00 0.05 0.00 87 1014.2
20260510065511 73 85 0.0 0.0 0.00 0.05 0.00 87 1014.3
20260510065010 73 85 0.0 0.0 0.00 0.05 0.00 87 1014.5
20260510064524 73 85 0.0 0.0 0.00 0.05 0.00 87 1014.6
20260510064006 73 85 0.0 0.0 0.00 0.05 0.00 87 1014.7
20260510063510 73 85 0.0 2.0 0.00 0.05 0.00 87 1014.6
20260510063034 73 85 0.0 2.0 0.00 0.05 0.00 87 1014.7
20260510062511 73 85 0.0 2.0 0.00 0.05 0.00 86 1014.6
20260510062007 73 85 0.0 2.0 0.00 0.05 0.00 86 1014.6
20260510061531 74 85 0.0 2.0 0.00 0.05 0.00 86 1014.7
20260510061011 74 85 0.0 0.0 0.00 0.05 0.00 86 1014.9
20260510060508 74 85 0.0 0.0 0.00 0.05 0.00 86 1015.0
20260510060037 74 85 0.0 0.0 0.00 0.05 0.00 86 1015.1
20260510055508 74 85 0.0 2.0 0.00 0.05 0.00 86 1015.0
20260510055006 74 85 0.0 2.0 0.00 0.05 0.00 86 1015.1
20260510054524 74 85 0.0 2.0 0.00 0.05 0.00 86 1015.2
20260510054007 74 85 0.0 2.0 0.00 0.05 0.00 86 1015.2
20260510053510 74 85 0.0 2.0 0.00 0.05 0.00 86 1015.2
20260510053004 74 85 0.0 2.0 0.00 0.05 0.00 86 1015.3
20260510052504 74 85 0.0 1.0 0.00 0.05 0.00 86 1015.2
20260510052005 74 85 0.0 0.0 0.00 0.05 0.00 87 1015.2
20260510051510 74 85 0.0 0.0 0.00 0.05 0.00 87 1015.3
20260510051006 74 86 0.0 0.0 0.00 0.05 0.00 87 1015.3
20260510050504 74 86 0.0 0.0 0.00 0.05 0.00 87 1015.3
20260510050014 74 86 0.0 0.0 0.00 0.05 0.00 87 1015.4
20260510045504 74 86 0.0 0.0 0.00 0.05 0.00 87 1015.4
20260510045008 74 86 0.0 0.0 0.00 0.05 0.00 87 1015.5
20260510044524 74 86 0.0 0.0 0.00 0.05 0.00 87 1015.5
20260510044009 74 86 0.0 2.0 0.00 0.05 0.00 87 1015.6
20260510043511 74 86 0.0 2.0 0.00 0.05 0.00 86 1015.6
20260510043025 74 86 0.0 0.0 0.00 0.05 0.00 86 1015.6
20260510042512 74 86 0.0 0.0 0.00 0.05 0.00 86 1015.5
20260510042010 74 86 0.0 0.0 0.00 0.05 0.00 86 1015.5
20260510041511 74 86 0.0 0.0 0.00 0.05 0.00 86 1015.6
20260510041003 74 86 0.0 0.0 0.00 0.05 0.00 86 1015.6
20260510040504 74 86 0.0 0.0 0.00 0.05 0.00 86 1015.9
20260510040014 74 86 0.0 0.0 0.00 0.05 0.00 86 1015.9
20260510035505 74 86 0.0 0.0 0.00 0.05 0.05 85 1015.9
20260510035007 74 86 0.0 0.0 0.00 0.05 0.05 85 1015.9
20260510034518 75 86 0.0 0.0 0.00 0.05 0.05 85 1015.9
20260510034010 75 86 0.0 0.0 0.00 0.05 0.05 85 1015.9
20260510033510 75 86 0.0 0.0 0.00 0.05 0.05 85 1016.1
20260510033027 75 86 0.0 0.0 0.00 0.05 0.05 85 1016.0
20260510032508 75 86 0.0 0.0 0.00 0.05 0.05 85 1015.9
20260510032010 75 86 0.0 0.0 0.00 0.05 0.05 85 1015.8
20260510031530 75 86 0.0 0.0 0.00 0.05 0.05 85 1015.8
20260510031008 75 86 0.0 0.0 0.00 0.05 0.05 85 1015.7
20260510030504 75 86 0.0 0.0 0.00 0.05 0.05 85 1015.8
20260510030011 75 86 0.0 0.0 0.00 0.05 0.05 85 1015.7
20260510025503 75 86 0.0 0.0 0.00 0.05 0.05 85 1015.6
20260510025004 75 86 0.0 0.0 0.00 0.05 0.05 85 1015.6
20260510024516 75 86 0.0 0.0 0.00 0.05 0.05 85 1015.7
20260510024005 75 86 0.0 0.0 0.00 0.05 0.05 85 1015.7
20260510023507 76 86 0.0 2.0 0.00 0.05 0.05 85 1015.7
20260510023021 76 86 0.0 2.0 0.00 0.05 0.05 85 1015.7
20260510022507 76 86 0.0 2.0 0.00 0.05 0.05 85 1015.6
20260510022014 76 86 0.0 1.0 0.00 0.05 0.05 84 1015.5
20260510021558 76 86 0.0 0.0 0.00 0.05 0.05 84 1015.4
20260510021008 76 86 0.0 2.0 0.00 0.05 0.05 84 1015.4
20260510020509 76 86 0.0 2.0 0.00 0.05 0.05 83 1015.4
20260510020028 76 86 0.0 0.0 0.00 0.05 0.05 83 1015.3
20260510015513 76 86 0.0 0.0 0.00 0.05 0.05 83 1015.3
20260510015006 76 86 0.0 2.0 0.00 0.05 0.05 83 1015.2
20260510014526 76 86 0.0 2.0 0.00 0.05 0.05 83 1015.2
20260510014004 76 86 0.0 0.0 0.00 0.05 0.05 83 1015.1
20260510013508 76 86 0.0 0.0 0.00 0.05 0.05 83 1015.1
20260510013020 77 86 0.0 0.0 0.00 0.05 0.05 83 1015.0
20260510012509 77 86 0.0 0.0 0.00 0.05 0.05 83 1014.7
20260510012009 77 86 0.0 0.0 0.00 0.05 0.05 82 1014.5
20260510011522 77 86 0.0 0.0 0.00 0.05 0.05 82 1014.6
20260510011008 77 86 0.0 0.0 0.00 0.05 0.05 81 1014.6
20260510010510 77 86 0.0 0.0 0.00 0.05 0.05 81 1014.6
20260510010035 77 86 0.0 0.0 0.00 0.05 0.05 82 1014.5
20260510005507 77 86 0.0 0.0 0.00 0.05 0.05 81 1014.5
20260510005007 77 86 0.0 0.0 0.00 0.05 0.05 81 1014.4
20260510004528 77 86 0.0 2.0 0.00 0.05 0.05 81 1014.5
20260510004008 78 86 0.0 2.0 0.00 0.05 0.05 81 1014.5
20260510003507 78 346 0.0 2.0 0.00 0.05 0.05 82 1014.5
20260510003019 78 346 0.0 2.0 0.00 0.05 0.05 82 1014.5
20260510002507 78 82 1.0 2.0 0.00 0.05 0.05 82 1014.4
20260510002007 78 38 0.0 2.0 0.00 0.05 0.05 82 1014.2
20260510001523 78 303 0.0 2.0 0.00 0.05 0.05 83 1014.1
20260510001006 78 57 0.0 2.0 0.00 0.05 0.05 83 1014.2
20260510000507 78 360 0.0 2.0 0.00 0.05 0.05 84 1014.2
20260510000028 78 61 0.0 2.0 0.00 0.05 0.05 84 1014.0
20260509235507 78 81 0.0 2.0 0.00 0.05 0.05 85 1014.0
20260509235012 78 59 1.0 2.0 0.00 0.05 0.05 84 1013.8
20260509234528 78 86 0.0 2.0 0.00 0.05 0.05 84 1013.9
20260509234010 78 92 1.0 2.0 0.00 0.05 0.05 84 1013.8
20260509233509 79 146 0.0 2.0 0.00 0.05 0.05 85 1013.6
20260509233033 79 148 0.0 2.0 0.00 0.05 0.05 84 1013.5
20260509232509 79 117 0.0 2.0 0.00 0.05 0.05 85 1013.8
20260509232011 79 122 0.0 2.0 0.00 0.05 0.05 85 1013.9
20260509231522 79 127 0.0 2.0 0.00 0.05 0.05 84 1013.8
20260509231008 79 313 0.0 2.0 0.00 0.05 0.05 84 1013.8
20260509230508 79 321 0.0 2.0 0.00 0.05 0.05 85 1013.8
20260509230034 79 352 0.0 2.0 0.00 0.05 0.05 84 1013.6
20260509225509 79 252 0.0 3.0 0.00 0.05 0.05 84 1013.6
20260509225011 79 346 1.0 3.0 0.00 0.05 0.05 86 1013.5
20260509224525 79 81 0.0 2.0 0.00 0.05 0.05 86 1013.6
20260509224006 79 81 0.0 2.0 0.00 0.05 0.05 86 1013.5
20260509223512 79 273 0.0 2.0 0.00 0.05 0.05 87 1013.4
20260509223027 79 140 0.0 2.0 0.00 0.05 0.05 86 1013.2
20260509222512 79 148 0.0 4.0 0.00 0.05 0.05 87 1013.2
20260509222008 79 240 1.0 4.0 0.00 0.05 0.05 87 1013.2
20260509221528 79 150 0.0 2.0 0.00 0.05 0.05 87 1013.3
20260509221007 80 70 0.0 4.0 0.00 0.05 0.05 87 1013.3
20260509220507 80 84 0.0 4.0 0.00 0.05 0.05 88 1013.2
20260509220026 80 246 0.0 4.0 0.00 0.05 0.05 88 1013.2
20260509215509 80 36 1.0 4.0 0.01 0.05 0.05 88 1013.2
20260509215006 80 81 0.0 2.0 0.03 0.05 0.05 88 1013.1
20260509214526 80 101 0.0 2.0 0.03 0.05 0.05 88 1013.1
20260509214013 80 111 0.0 4.0 0.04 0.05 0.05 88 1013.0
20260509213510 80 82 1.0 4.0 0.05 0.05 0.05 89 1012.9
20260509213031 81 112 0.0 2.0 0.05 0.05 0.05 89 1012.8
20260509212507 81 95 1.0 2.0 0.05 0.05 0.05 89 1012.8
20260509212012 81 352 0.0 2.0 0.05 0.05 0.05 88 1012.7
20260509211528 81 76 0.0 2.0 0.05 0.05 0.05 88 1012.7
20260509211008 82 76 0.0 2.0 0.05 0.05 0.05 87 1012.7
20260509210508 83 76 0.0 2.0 0.05 0.05 0.05 83 1012.7
20260509210028 83 76 0.0 2.0 0.05 0.05 0.05 81 1012.8
20260509205502 85 76 0.0 2.0 0.04 0.04 0.04 79 1012.8
20260509205002 85 77 0.0 2.0 0.02 0.02 0.02 75 1012.9
20260509204507 86 77 0.0 2.0 0.02 0.02 0.02 72 1012.8
20260509204003 87 77 0.0 2.0 0.01 0.01 0.01 68 1012.7
20260509203502 88 68 0.0 2.0 0.00 0.00 0.00 61 1012.9
20260509203017 88 68 0.0 2.0 0.00 0.00 0.00 62 1012.8
20260509202503 88 67 0.0 2.0 0.00 0.00 0.00 57 1012.8
20260509202007 88 177 0.0 2.0 0.00 0.00 0.00 56 1012.7
20260509201516 89 116 0.0 2.0 0.00 0.00 0.00 56 1012.6
20260509201007 89 121 0.0 2.0 0.00 0.00 0.00 55 1012.5
20260509200508 89 339 0.0 2.0 0.00 0.00 0.00 55 1012.4
20260509200020 90 26 0.0 2.0 0.00 0.00 0.00 54 1012.4
20260509195503 90 105 0.0 2.0 0.00 0.00 0.00 54 1012.5
20260509195002 91 83 1.0 2.0 0.00 0.00 0.00 53 1012.5
20260509194509 91 227 0.0 3.0 0.00 0.00 0.00 51 1012.5
20260509194002 92 140 1.0 3.0 0.00 0.00 0.00 50 1012.5
20260509193504 92 153 1.0 6.0 0.00 0.00 0.00 49 1012.6
20260509193018 93 101 0.0 6.0 0.00 0.00 0.00 48 1012.6
20260509192503 93 269 1.0 2.0 0.00 0.00 0.00 45 1012.6
20260509192003 93 116 0.0 2.0 0.00 0.00 0.00 46 1012.5
20260509191514 93 134 0.0 4.0 0.00 0.00 0.00 46 1012.5
20260509191003 93 67 1.0 5.0 0.00 0.00 0.00 46 1012.5
20260509190504 93 248 2.0 5.0 0.00 0.00 0.00 46 1012.6
20260509190018 94 118 1.0 3.0 0.00 0.00 0.00 45 1012.6
20260509185509 94 251 0.0 2.0 0.00 0.00 0.00 45 1012.7
20260509185007 94 255 0.0 4.0 0.00 0.00 0.00 45 1012.8
20260509184527 94 211 1.0 4.0 0.00 0.00 0.00 45 1012.8
20260509184002 94 138 1.0 6.0 0.00 0.00 0.00 44 1012.7
20260509183503 93 198 1.0 6.0 0.00 0.00 0.00 44 1012.8
20260509183012 93 107 1.0 4.0 0.00 0.00 0.00 45 1012.9